Simultaneous Nadir Overpasses (SNOs) Predictions

Prediction of SNOs between METOP-A and TERRA Satellite Orbit:

Table of predicted SNOs for the next 14.0 days since TLE Epoch: 2/3/2017
Index Date (METOP-A) Time (METOP-A) Lat,Lon (METOP-A) SZA (METOP-A ) Date (TERRA) Time (TERRA) Lat,Lon (TERRA) SZA (TERRA ) Distance(km) Time Diff (sec)
1 02/04/2017 19:02:09 -81.31, 121.78 80.39 02/04/2017 19:02:21 -81.32, 121.74 80.39 0.80 12
2 02/04/2017 19:52:49 81.32, -70.46 99.65 02/04/2017 19:51:47 81.32, -70.51 99.62 0.87 62
3 02/07/2017 14:36:31 -81.31,-171.94 81.28 02/07/2017 14:36:36 -81.31,-171.89 81.27 0.95 5
4 02/07/2017 15:27:11 81.32, -4.20 98.76 02/07/2017 15:26:02 81.32, -4.15 98.74 0.85 69
5 02/10/2017 09:20:13 81.31, 86.77 97.80 02/10/2017 09:21:24 81.31, 86.84 97.84 1.30 71
6 02/1
